Regional Weather Roundup
Issued by NWS

Home | Current Version | Previous Version | Text Only | Print | Product List | Glossary On
Versions: 1 2 3 4 5 6 7 8 9 10 11 12 13 14 15 16 17 18 19 20 21 22 23 24 25 26 27 28 29 30 31 32 33 34 35 36 37 38 39 40 41 42 43 44 45 46 47 48 49 50
000
ASUS43 KMPX 021010
RWRMN
WEATHER ROUNDUP FOR MINNESOTA
NATIONAL WEATHER SERVICE TWIN CITIES/CHANHASSEN MN
500 AM CDT THU APR 02 2015


NOTE: "FAIR" INDICATES FEW OR NO CLOUDS BELOW 12,000 FEET WITH NO
SIGNIFICANT WEATHER AND/OR OBSTRUCTIONS TO VISIBILITY. N/A MEANS
CURRENT SKY AND/OR WEATHER CONDITIONS ARE NOT AVAILABLE.

MNZ060>063-068>070-021100-
   Twin Cities Metro

CITY           SKY/WX    TMP DP  RH WIND       PRES   REMARKS
TWIN CITIES    CLOUDY    50  34  54 W9        29.69S
ST PAUL        CLOUDY    50  35  56 NW16      29.69S
CRYSTAL        CLOUDY    50  35  56 NW7       29.68S
BLAINE         CLOUDY    48  36  61 W7        29.68S
LAKEVILLE      CLOUDY    46  36  66 NW12      29.69R
EDEN PRAIRIE   CLOUDY    50  33  52 NW8       29.69S
SOUTH ST PAUL  CLOUDY    51  34  51 NW13      29.68S
LAKE ELMO      FAIR      50  36  57 NW12      29.67F
$$
MNZ001>005-007-008-013>017-022>024-027-028-021100-
   Northwest Minnesota

CITY           SKY/WX    TMP DP  RH WIND       PRES   REMARKS
BEMIDJI        PTCLDY    38  31  78 SW8       29.62R
HALLOCK        CLEAR     30  28  93 S6        29.55S WCI  24
ROSEAU         CLEAR     37  30  75 SW12      29.53S
WARROAD        CLEAR     36  32  87 SW9       29.53S
THIEF RVR FALL CLEAR     36  28  75 SW9       29.60S
CROOKSTON      CLEAR     36  27  69 W12       29.62S
FOSSTON        CLEAR     30  27  86 S9        29.63S WCI  22
DETROIT LAKES  FAIR      39  32  75 W8        29.68S
MOORHEAD       CLEAR     37  30  75 SW8       29.69R
PARK RAPIDS    PTCLDY    33  28  81 W7        29.65R WCI  27
MAHNOMEN       FAIR      31  27  88 S12       29.64S WCI  21
$$
MNZ006-009>011-018-025>026-021100-
   North Central Minnesota

CITY           SKY/WX    TMP DP  RH WIND       PRES   REMARKS
BAUDETTE       CLEAR     37  32  82 SW9       29.53S
FLAG ISLAND    CLEAR     37  32  81 W15       29.48S
INTL FALLS     CLEAR     38  33  82 SW7       29.52R
WASKISH        CLEAR     37  34  87 SW10      29.58R
BIG FORK       PTCLDY    36  32  87 SW5       29.58R
LONGVILLE      MOCLDY    39  34  81 SW3       29.63S
GRAND RAPIDS   MOCLDY    43  32  65 W6        29.61R
CRANE LAKE     CLEAR     41  34  75 W7        29.55R
ORR            CLEAR     39  32  75 W5        29.54R
COOK           CLEAR     39  34  81 SW7       29.57R
WALKER         FAIR      39  30  70 W5        29.63R
$$
MNZ012-019>021-037-021100-
   Northeast Minnesota

CITY           SKY/WX    TMP DP  RH WIND       PRES   REMARKS
DULUTH         CLOUDY    46  36  68 W15       29.58R
ELY            PTCLDY    41  34  75 W10       29.54R
HIBBING        PTCLDY    42  35  76 W6        29.59R
EVELETH        PTCLDY    41  34  75 W6        29.59R
DULUTH HARBOR  CLOUDY    48  37  66 SW10      29.60R
TWO HARBORS    CLOUDY    48  37  66 W14G22    29.52R
SILVER BAY     CLOUDY    48  34  57 W7G21     29.49R
GRAND MARAIS     N/A     40  36  86 W9        29.47R
G MARAIS ARPRT CLOUDY    43  36  75 W12G17    29.45R
$$
MNZ029>031-032-039>041-046>048-054>057-064-021100-
   West Central Minnesota

CITY           SKY/WX    TMP DP  RH WIND       PRES   REMARKS
FERGUS FALLS   MOCLDY    34  25  69 W8        29.73R WCI  27
WHEATON        PTCLDY    37  28  70 SW10      29.75F
MORRIS         PTCLDY    37  28  70 W8        29.72F
ALEXANDRIA     MOCLDY    35  30  82 SW6       29.71F WCI  30
ELBOW LAKE     FAIR      35  29  78 W9        29.72S WCI  27
WADENA         MOCLDY    37  30  75 SW8       29.68S
GLENWOOD       MOCLDY    37  32  81 W8        29.72F
APPLETON       FAIR      36  28  75 W7        29.74F
BENSON         MOCLDY    34  28  80 W5        29.74S WCI  30
ORTONVILLE     PTCLDY    43  28  56 W8        29.75S
MADISON        MOCLDY    39  27  60 W8        29.75F
WILLMAR        FAIR      39  30  70 W5        29.75S
$$
MNZ033>034-036-042>043-049>051-058-059-021100-
   Central Minnesota

CITY           SKY/WX    TMP DP  RH WIND       PRES   REMARKS
ST CLOUD       CLOUDY    41  33  73 W9        29.70R
SAUK CENTRE    FAIR      38  32  80 W7        29.71S
PAYNESVILLE    CLOUDY    34  30  86 SW6       29.73S WCI  29
AITKIN         CLOUDY    45  36  70 SW6       29.64R
PINE RIVER     MOCLDY    41  34  75 W3        29.69S
BRAINERD       CLOUDY    38  32  79 W8        29.67R
STAPLES        MOCLDY    39  32  75 SW7       29.68R
LONG PRAIRIE   FAIR      39  32  75 SW6       29.70S
LITTLE FALLS   CLOUDY    34  30  86 CALM      29.70R
LITCHFIELD     CLOUDY    45  37  76 CALM      29.73S
BUFFALO        CLOUDY    45  34  65 W7        29.71S
MAPLE LAKE     CLOUDY    46  37  70 W6        29.72S
$$
MNZ037-044-045-052-053-021100-
   East Central Minnesota

CITY           SKY/WX    TMP DP  RH WIND       PRES   REMARKS
PRINCETON      CLOUDY    45  36  70 W6        29.69S
MORA           CLOUDY    43  34  70 W6        29.68S
CAMBRIDGE      CLOUDY    48  36  61 W8        29.66S
RUSH CITY      CLOUDY    45  37  73 W5        29.67R
MOOSE LAKE     CLOUDY    45  34  65 CALM      29.61S
HINCKLEY       FAIR      45  37  76 W5        29.65R
CLOQUET        CLOUDY    45  36  70 W10       29.60S
MCGREGOR       CLOUDY    43  36  75 SW3       29.64R
$$
MNZ071>073-080-081-089-090-097-098-021100-
   Southwest Minnesota

CITY           SKY/WX    TMP DP  RH WIND       PRES   REMARKS
MONTEVIDEO     MOCLDY    43  30  61 NW6       29.75F
GRANITE FALLS  CLOUDY    36  28  73 W5        29.76F
CANBY          MOCLDY    43  29  57 W10       29.76F
MARSHALL       CLOUDY    39  25  56 W10       29.76F
REDWOOD FALLS  CLOUDY    45  34  65 W9        29.73F
OLIVIA         CLOUDY    37  34  87 W7        29.73F
PIPESTONE      CLOUDY    43  28  56 NW6       29.77S
WINDOM         CLOUDY    43  36  75 NW6       29.74F
WORTHINGTON    CLOUDY    43  32  65 NW8       29.77S
JACKSON        CLOUDY    45  34  65 NW8       29.75S
TRACY          CLOUDY    46  30  53 W7        29.76F
SLAYTON        CLOUDY    39  29  67 CALM      29.77F
$$
MNZ065>067-074>077-082>085-091>093-021100-
   South Central Minnesota

CITY           SKY/WX    TMP DP  RH WIND       PRES   REMARKS
MANKATO        CLOUDY    48  36  61 NW9       29.72S
NEW ULM        CLOUDY    45  37  76 W9        29.73S
ST JAMES       CLOUDY    48  39  71 W9        29.74F
FAIRMONT       CLOUDY    48  36  61 NW12      29.73S
GLENCOE        CLOUDY    48  39  71 W9        29.72S
FARIBAULT      CLOUDY    50  37  62 NW7       29.71R
OWATONNA       CLOUDY    48  39  71 NW7       29.71R
WASECA         CLOUDY    50  39  66 NW12      29.72S
ALBERT LEA     CLOUDY    50  43  76 NW6       29.71R
$$
MNZ078>079-086>088-094>096-021100-
   Southeast Minnesota

CITY           SKY/WX    TMP DP  RH WIND       PRES   REMARKS
ROCHESTER      LGT RAIN  50  44  80 NW10      29.70R
RED WING       CLOUDY    52  36  54 NW10      29.66R
DODGE CENTER   CLOUDY    50  41  71 NW10      29.70R
WINONA         RAIN      54  50  87 NW8       29.67R
AUSTIN         CLOUDY    50  45  81 N6        29.70S
PRESTON        RAIN      51  49  92 NW12      29.69R
$$
ABBREVIATIONS USED IN REMARKS
   TC - TEMPERATURES IN CELSIUS
  WCI - WIND CHILL INDEX
   HX - HEAT INDEX
  VSB - VISIBILITY
$$



USA.gov is the U.S. government's official web portal to all federal, state and local government web resources and services.